Location: Bad Salzschlirf
(50.3750°N, 9.3000°E)
Time: 17:34:48
(UTC+02:00)

ISS - Pass Details

Date: 19 March 2023
Orbit: 413 x 421 km, 51.6° (Epoch: 29 March)

Event Time Altitude Azimuth Distance (km) Brightness Sun altitude
Rises 20:59:39 0° 260° (W) 2,353 0.8 -23.1°
Reaches altitude 10° 21:01:45 10° 261° (W) 1,490 -0.3 -23.4°
Enters shadow 21:03:53 37° 267° (W) 669 -2.4 -23.6°
